Location: Ammerl�gen
(47.2167°N, 9.6000°E)
Time: 03:36:01
(UTC+00:00)

NOSS 2-2 (D) - Pass Details

Date: 21 April 2021
Orbit: 456 x 1751 km, 63.3° (Epoch: 02 May)

Event Time Altitude Azimuth Distance (km) Brightness Sun altitude
Rises 23:02:53 0° 320° (NW) 3,076 7.9 -30.5°
Reaches altitude 10° 23:04:56 10° 322° (NW) 2,296 7.1 -30.5°
Enters shadow 23:10:03 78° 25° (NNE) 968 4.4 -30.5°
